LRCK Weather Reports


Display with metric or nautical units.
time (UTC)temp
F
wind
direction
speed
MPH
gust
MPH
rain 1hr
in
rain 24hr
in
rain mn
in
humidity
%
barometer
mb
20260905140317 93 260 11.0 0.0 0.00 0.00 0.00 21 1014.0
20260905134931 91 250 11.0 0.0 0.00 0.00 0.00 21 1014.0
20260905133317 91 250 11.0 0.0 0.00 0.00 0.00 21 1014.0
20260905131820 93 260 14.0 0.0 0.00 0.00 0.00 23 1015.0
20260905130338 93 260 14.0 0.0 0.00 0.00 0.00 23 1015.0
20260905124818 93 250 11.0 0.0 0.00 0.00 0.00 23 1015.0
20260905123318 93 250 11.0 0.0 0.00 0.00 0.00 23 1015.0
20260905121845 91 250 13.0 0.0 0.00 0.00 0.00 24 1015.0
20260905120318 91 250 13.0 0.0 0.00 0.00 0.00 24 1015.0
20260905114817 91 260 13.0 0.0 0.00 0.00 0.00 24 1015.0
20260905113317 91 260 13.0 0.0 0.00 0.00 0.00 24 1015.0
20260905111836 91 250 13.0 0.0 0.00 0.00 0.00 26 1015.0
20260905110317 91 250 13.0 0.0 0.00 0.00 0.00 26 1015.0
20260905104817 91 240 13.0 0.0 0.00 0.00 0.00 26 1016.0
20260905103317 91 240 13.0 0.0 0.00 0.00 0.00 26 1016.0
20260905101817 90 230 14.0 0.0 0.00 0.00 0.00 27 1016.0
20260905100318 90 230 14.0 0.0 0.00 0.00 0.00 27 1016.0
20260905094933 90 230 11.0 0.0 0.00 0.00 0.00 29 1016.0
20260905093317 90 230 11.0 0.0 0.00 0.00 0.00 29 1016.0
20260905091817 88 230 11.0 0.0 0.00 0.00 0.00 31 1016.0
20260905090317 88 230 11.0 0.0 0.00 0.00 0.00 31 1016.0
20260905084817 86 230 10.0 0.0 0.00 0.00 0.00 38 1017.0
20260905083317 86 230 10.0 0.0 0.00 0.00 0.00 38 1017.0
20260905081817 84 260 9.0 0.0 0.00 0.00 0.00 37 1017.0
20260905080318 84 260 9.0 0.0 0.00 0.00 0.00 37 1017.0
20260905074817 82 250 10.0 0.0 0.00 0.00 0.00 42 1017.0
20260905073326 82 250 10.0 0.0 0.00 0.00 0.00 42 1017.0
20260905071818 79 250 9.0 0.0 0.00 0.00 0.00 54 1017.0
20260905070317 79 250 9.0 0.0 0.00 0.00 0.00 54 1017.0
20260905064818 77 260 9.0 0.0 0.00 0.00 0.00 54 1017.0
20260905063318 77 260 9.0 0.0 0.00 0.00 0.00 54 1017.0
20260905061818 73 250 7.0 0.0 0.00 0.00 0.00 61 1016.0
20260905060318 73 250 7.0 0.0 0.00 0.00 0.00 61 1016.0
20260905054818 72 260 8.0 0.0 0.00 0.00 0.00 65 1016.0
20260905053318 72 260 8.0 0.0 0.00 0.00 0.00 65 1016.0
20260905051817 68 250 7.0 0.0 0.00 0.00 0.00 73 1016.0
20260905050318 68 250 7.0 0.0 0.00 0.00 0.00 73 1016.0
20260905044818 66 250 9.0 0.0 0.00 0.00 0.00 73 1016.0
20260905043317 66 250 9.0 0.0 0.00 0.00 0.00 73 1016.0
20260905041817 63 260 9.0 0.0 0.00 0.00 0.00 83 1016.0
20260905040317 63 260 9.0 0.0 0.00 0.00 0.00 83 1016.0
20260905034818 63 260 9.0 0.0 0.00 0.00 0.00 83 1016.0
20260905033317 63 260 9.0 0.0 0.00 0.00 0.00 83 1016.0
20260905031818 64 260 8.0 0.0 0.00 0.00 0.00 78 1016.0
20260905030317 64 260 8.0 0.0 0.00 0.00 0.00 78 1016.0
20260905024830 63 260 10.0 0.0 0.00 0.00 0.00 83 1016.0
20260905023317 63 260 10.0 0.0 0.00 0.00 0.00 83 1016.0
20260905021817 63 260 10.0 0.0 0.00 0.00 0.00 83 1016.0
20260905020318 63 260 10.0 0.0 0.00 0.00 0.00 83 1016.0
20260905014818 64 260 9.0 0.0 0.00 0.00 0.00 78 1016.0
20260905013317 64 260 9.0 0.0 0.00 0.00 0.00 78 1016.0
20260905011817 66 260 8.0 0.0 0.00 0.00 0.00 73 1016.0
20260905010318 66 260 8.0 0.0 0.00 0.00 0.00 73 1016.0
20260905004818 64 250 8.0 0.0 0.00 0.00 0.00 78 1016.0
20260905003318 64 250 8.0 0.0 0.00 0.00 0.00 78 1016.0
20260905001817 64 240 8.0 0.0 0.00 0.00 0.00 83 1016.0
20260905000318 64 240 8.0 0.0 0.00 0.00 0.00 83 1016.0
20260904234817 64 240 8.0 0.0 0.00 0.00 0.00 83 1016.0
20260904233317 64 240 8.0 0.0 0.00 0.00 0.00 83 1016.0
20260904231819 64 250 8.0 0.0 0.00 0.00 0.00 83 1016.0
20260904230317 64 250 8.0 0.0 0.00 0.00 0.00 83 1016.0
20260904224819 64 230 7.0 0.0 0.00 0.00 0.00 88 1016.0
20260904223317 64 230 7.0 0.0 0.00 0.00 0.00 88 1016.0
20260904221818 64 220 8.0 0.0 0.00 0.00 0.00 94 1016.0
20260904220317 64 220 8.0 0.0 0.00 0.00 0.00 94 1016.0
20260904214818 66 220 8.0 0.0 0.00 0.00 0.00 88 1016.0
20260904213317 66 220 8.0 0.0 0.00 0.00 0.00 88 1016.0
20260904211818 66 220 7.0 0.0 0.00 0.00 0.00 88 1016.0
20260904210317 66 220 7.0 0.0 0.00 0.00 0.00 88 1016.0
20260904204819 66 210 9.0 0.0 0.00 0.00 0.00 88 1016.0
20260904203318 66 210 9.0 0.0 0.00 0.00 0.00 88 1016.0
20260904201818 66 210 7.0 0.0 0.00 0.00 0.00 88 1017.0
20260904200333 68 190 9.0 0.0 0.00 0.00 0.00 83 1017.0
20260904194817 68 190 9.0 0.0 0.00 0.00 0.00 83 1017.0
20260904193333 70 180 10.0 0.0 0.00 0.00 0.00 78 1017.0
20260904191817 70 180 10.0 0.0 0.00 0.00 0.00 78 1017.0
20260904190318 70 180 10.0 0.0 0.00 0.00 0.00 78 1017.0
20260904184818 68 180 10.0 0.0 0.00 0.00 0.00 83 1017.0
20260904183317 68 180 10.0 0.0 0.00 0.00 0.00 83 1017.0
20260904181822 68 170 8.0 0.0 0.00 0.00 0.00 83 1017.0
20260904180317 68 170 8.0 0.0 0.00 0.00 0.00 83 1017.0
20260904174817 70 160 8.0 0.0 0.00 0.00 0.00 78 1017.0
20260904173317 70 160 8.0 0.0 0.00 0.00 0.00 78 1017.0
20260904171818 70 140 7.0 0.0 0.00 0.00 0.00 78 1016.0
20260904170317 70 140 7.0 0.0 0.00 0.00 0.00 78 1016.0
20260904164817 73 130 8.0 0.0 0.00 0.00 0.00 74 1016.0
20260904163317 73 130 8.0 0.0 0.00 0.00 0.00 74 1016.0
20260904161817 75 140 8.0 0.0 0.00 0.00 0.00 65 1016.0
20260904160317 75 140 8.0 0.0 0.00 0.00 0.00 65 1016.0
20260904154818 77 140 10.0 0.0 0.00 0.00 0.00 61 1016.0
20260904153319 77 140 10.0 0.0 0.00 0.00 0.00 61 1016.0
20260904151817 79 140 9.0 0.0 0.00 0.00 0.00 54 1016.0
20260904150318 79 140 9.0 0.0 0.00 0.00 0.00 54 1016.0
20260904144818 81 130 9.0 0.0 0.00 0.00 0.00 48 1016.0
20260904143318 81 130 9.0 0.0 0.00 0.00 0.00 48 1016.0
20260904141817 81 130 8.0 0.0 0.00 0.00 0.00 42 1016.0